Regional Weather Roundup
Issued by NWS Midland/Odessa, TX

Home | Current Version | Previous Version | Text Only | Print | Product List | Glossary On
Versions: 1 2 3 4 5 6 7 8 9 10 11 12 13 14 15 16 17 18 19 20 21 22 23 24 25 26 27 28 29 30 31 32 33 34 35 36 37 38 39 40 41 42 43 44 45 46 47 48 49 50
000
ASUS44 KMAF 250110
RWRMAF
MIDLAND AREA WEATHER ROUNDUP
NATIONAL WEATHER SERVICE MIDLAND TX
700 PM CST TUE JAN 24 2017

...IN SOUTHWEST TEXAS AND SOUTHEAST NEW MEXICO...

CITY           SKY/WX    TMP DP  RH WIND       PRES   REMARKS
ALPINE         CLEAR     57  28  33 S5        29.85R
ANDREWS        FAIR      55  21  26 NW13      29.76R
ARTESIA        CLEAR     48  18  29 W12       29.78R
BIG SPRING     CLEAR     59  29  31 W13       29.76R
CARLSBAD       CLEAR     53  18  25 W16G26    29.76R
DRYDEN           N/A     74  26  16 N18G26    29.65R
FORT STOCKTON  CLOUDY    60  31  33 NW14      29.77R
GUAD PASS      CLEAR     43  22  43 W37G53    29.78R WCI  31
HOBBS          CLEAR     52  12  20 SW10      29.76R
MARFA          CLEAR     52  30  43 W10       29.83R
MIDLAND AIRPK  CLEAR     61  28  28 W12       29.76R
MIDLAND INTL   CLEAR     59  28  30 NW8       29.75R
ODESSA         CLEAR     59  26  28 NW10      29.76R
PECOS          CLEAR     58  30  34 W13G20    29.77R
PRESIDIO       FAIR      70  28  21 W12       29.71R
SEMINOLE       CLEAR     54  17  23 W13       29.76R
SNYDER         CLOUDY    59  30  32 W13G21    29.73R
WINK           CLEAR     57  28  33 W21       29.74R
$$
...OTHER STATIONS IN TEXAS...

CITY           SKY/WX    TMP DP  RH WIND       PRES   REMARKS
ABILENE        CLEAR     66  33  29 NW17      29.67R
AMARILLO       CLEAR     47  12  24 W18G25    29.69R WCI  40
AUSTIN         MOCLDY    73  62  68 S9        29.65R
BROWNSVILLE    CLOUDY    74  67  78 S20G29    29.68R
CORPUS CHRISTI PTCLDY    71  66  84 S24       29.66R
DALLAS FTW     MOCLDY    72  54  53 S9        29.58R
DEL RIO        CLEAR     75  44  33 E9        29.60R
EL PASO        MOCLDY    50  19  29 NW20G31   29.84R
HOUSTON INT    MOCLDY    72  63  73 S13       29.74R
LUBBOCK        CLEAR     51  13  21 NW13      29.70R
SAN ANGELO     CLEAR     69  33  26 NW10G23   29.67R
SAN ANTONIO    MOCLDY    73  51  46 CALM      29.65R
WACO           MOCLDY    71  58  63 S13       29.60R
WICHITA FALLS  NOT AVBL
$$
...OTHER LOCATIONS IN NEW MEXICO...

CITY           SKY/WX    TMP DP  RH WIND       PRES   REMARKS
ALAMAGORDO     CLEAR     45  16  31 SW10      29.88R WCI  39
ALBUQUERQUE    PTCLDY    36  13  38 W13       29.83R WCI  27
CANNON AFB     CLEAR     44  13  27 NW14      29.74R WCI  38
CLOVIS         CLEAR     43  14  31 W16       29.74R WCI  35
HOLLOMAN AFB   CLEAR     45  15  30 W13G24    29.90R WCI  39
ROSWELL        CLEAR     49  11  21 W14       29.77R
RUIDOSO        CLEAR     32   5  32 W8        29.82R WCI  25
SANTA FE       CLEAR     29  17  61 W16       29.76R WCI  17
TRUTH OR CONSE FAIR      41  12  30 W15       29.86R WCI  33
TUCUMCARI      CLEAR     43  14  31 W17       29.72R WCI  35
$$




USA.gov is the U.S. government's official web portal to all federal, state and local government web resources and services.